Jordan, MT

5:47 AM MDT on May 26, 2017 (GMT -0600)
Jordan

Weather History for KJDN - September, 2012

Change the Weather History Date:

Friday, September 28, 2012

  Actual Average Record
Temperature  
Mean Temperature 59 °F 52 °F  
Max Temperature 83 °F 67 °F 89 °F (1909)
Min Temperature 35 °F 36 °F 18 °F (1984)
Degree Days  
Heating Degree Days 6 14  
Month to date heating degree days 135 234  
Since 1 July heating degree days 167 299  
Cooling Degree Days 0 0  
Month to date cooling degree days 30 24  
Year to date cooling degree days 728 417  
Growing Degree Days 8 (Base 50)    
Moisture  
Dew Point 36 °F    
Average Humidity 48    
Maximum Humidity 76    
Minimum Humidity 20    
Precipitation  
Precipitation 0.00 in 0.04 in 0.20 in (1919)
Month to date precipitation 0.03 1.14  
Year to date precipitation 5.75 11.06  
Snow  
Snow 0.00 in - - ()
Month to date snowfall 0.0  
Since 1 July snowfall 0.0  
Since 1 September snowfall 0.0  
Snow Depth 0.00 in    
Sea Level Pressure  
Sea Level Pressure 29.99 in    
Wind  
Wind Speed 5 mph (South)    
Max Wind Speed 20 mph    
Max Gust Speed 25 mph    
T = Trace of Precipitation, MM = Missing Value Source: NWS Daily Summary

Daily Weather History Graph

Daily Weather History Graph

Search for Another Location

Airport or City:

Trip Planner

Search our weather history database for the weather conditions in past years. The results will help you decide how hot, cold, wet, or windy it might be!

Date:

Astronomy

Sep. 28, 2012 Rise Set
Actual Time 7:03 AM MDT 6:52 PM MDT
Civil Twilight 6:32 AM MDT 7:22 PM MDT
Nautical Twilight 5:57 AM MDT 7:58 PM MDT
Astronomical Twilight 5:20 AM MDT 8:34 PM MDT
Moon 5:56 PM MDT (9/28) 5:34 AM MDT (9/28)
Length of Visible Light 12h 49m
Length of Day
11h 48m
Waxing Gibbous, 98% of the Moon is Illuminated
Sep 28
Waxing Gibbous
Sep 29
Full
Oct 8
Last Quarter
Oct 15
New
Oct 21
First Quarter

Hourly Weather History & Observations

Time (MDT) Temp. Windchill Dew Point Humidity Pressure Visibility Wind Dir Wind Speed Gust Speed Precip Events Conditions
12:48 AM 45.0 °F 42.6 °F 35.1 °F 68% 30.09 in - West 4.6 mph - N/A   Unknown
1:48 AM 43.0 °F 40.3 °F 34.0 °F 71% 30.08 in - West 4.6 mph - N/A   Unknown
2:48 AM 42.1 °F - 33.1 °F 70% 30.07 in - Calm Calm - N/A   Unknown
3:48 AM 39.0 °F 35.7 °F 32.0 °F 76% 30.07 in - WNW 4.6 mph - N/A   Unknown
4:48 AM 37.9 °F 34.4 °F 30.0 °F 73% 30.09 in - ESE 4.6 mph - N/A   Unknown
5:48 AM 37.0 °F 34.5 °F 30.0 °F 76% 30.08 in - WNW 3.5 mph - N/A   Unknown
6:48 AM 35.1 °F - 28.9 °F 78% 30.08 in - Calm Calm - N/A   Unknown
7:48 AM 39.9 °F 37.8 °F 32.0 °F 73% 30.09 in - WNW 3.5 mph - N/A   Unknown
8:48 AM 46.9 °F - 34.0 °F 61% 30.09 in - West 3.5 mph - N/A   Unknown
9:48 AM 57.0 °F - 41.0 °F 55% 30.07 in - Calm Calm - N/A   Unknown
10:48 AM 66.9 °F - 45.0 °F 45% 30.05 in - SSE 5.8 mph - N/A   Unknown
11:48 AM 73.9 °F - 45.0 °F 35% 30.01 in - SSE 6.9 mph - N/A   Unknown
12:48 PM 77.0 °F - 44.1 °F 31% 29.99 in - ESE 9.2 mph - N/A   Unknown
1:48 PM 79.0 °F - 42.1 °F 27% 29.96 in - SE 13.8 mph 21.9 mph N/A   Unknown
2:48 PM 81.0 °F - 43.0 °F 26% 29.94 in - SSE 13.8 mph 21.9 mph N/A   Unknown
3:48 PM 82.9 °F - 39.9 °F 22% 29.91 in - SSE 13.8 mph 19.6 mph N/A   Unknown
4:48 PM 82.0 °F - 37.9 °F 21% 29.90 in - South 15.0 mph - N/A   Unknown
5:48 PM 78.1 °F - 35.1 °F 21% 29.90 in - SE 11.5 mph - N/A   Unknown
6:48 PM 72.0 °F - 35.1 °F 26% 29.91 in - ESE 6.9 mph - N/A   Unknown
7:48 PM 66.0 °F - 35.1 °F 32% 29.91 in - Calm Calm - N/A   Unknown
8:48 PM 60.1 °F - 34.0 °F 38% 29.91 in - Calm Calm - N/A   Unknown
9:48 PM 62.1 °F - 36.0 °F 38% 29.90 in - Calm Calm - N/A   Unknown
10:48 PM 60.1 °F - 36.0 °F 41% 29.88 in - ENE 3.5 mph - N/A   Unknown
11:48 PM 53.1 °F - 35.1 °F 50% 29.86 in - Calm Calm - N/A   Unknown